Location: Table Mountain
(47.2500°N, 120.5778°W)
Time: 15:11:40
(UTC-07:00)

Envisat - Pass Details

Date: 16 October 2017
Orbit: 764 x 766 km, 98.2° (Epoch: 16 October)

Event Time Altitude Azimuth Distance (km) Brightness Sun altitude
Exits shadow 19:26:29 19° 85° (E) 1,751 4.2 -13.4°
Maximum altitude 19:27:59 22° 61° (ENE) 1,631 4.2 -13.6°
Drops below altitude 10° 19:31:48 10° 12° (NNE) 2,309 5.4 -14.3°
Sets 19:34:34 0° 358° (N) 3,240 6.3 -14.7°
